Radiosonde details



Informationen :

Serial : X3123542
Type : RS41-SGE
Frequency : 403.000MHz
Launchsite : Keflavikurflugvollur
Nearest town : Mosfellsbær, IS (24.1km)

Altitude (Max) : 28357m at 2026-09-05 12:39:38
Speed (Max) : 100km/h at altitude 10495m

Average speed : 41km/h
Average ascent rate : 5m/s
Average descent rate : -30m/s
Ascent rate (Max) : 7.2m/s
Descent rate (Max): -67.8m/s

First frame :
DL9RDZ-2 at 2026-09-05 11:03:38 at altitude 803m (OG: 761m)
Last frame :
DL9RDZ-1 at 2026-09-05 12:53:27 at altitude 4016m (OG: 3974m)

Flighttime : 1h49m49s
Ascent time : 1h36m0s
Descent time : 13m49s
Uptime : -
Killtimer : 8h17m

Distance (Straight line distance): 73km

Distance (Route):


Frames : 486


Measurement :

Temperature : -14.9°C
Humidity : 59.0%
Pressure : 0hPa


Vertical profile (SkewT) :


Elevation profile :



Receiving stations :


Receiver Frames First received Last received
DL9RDZ-1 486 2026-09-05 11:03:38 2026-09-05 12:53:27

Share per receiver :



All frames :


Receiver Date Latitude Longitude Direction Speed Altitude Climb Temperature Humidity Pressure Voltage Killtimer Uptime BKT XDATA
DL9RDZ-12026-09-05 12:53:2764.24624-21.2377312°27km/h4016m-16.5m/s-14.9°C59.0%0hPa0V08:17:0000:00:0000:00:00
DL9RDZ-12026-09-05 12:53:1664.24560-21.2381418km/h4187m-16.0m/s-15.7°C35.5%0hPa0V08:17:0000:00:0000:00:00
DL9RDZ-12026-09-05 12:53:0664.24512-21.2384640°16km/h4356m-16.2m/s-15.1°C14.6%0hPa0V08:17:0000:00:0000:00:00
DL9RDZ-12026-09-05 12:52:5464.24477-21.2396465°26km/h4529m-17.6m/s-15.1°C5.2%0hPa0V08:17:0000:00:0000:00:00
DL9RDZ-12026-09-05 12:52:4364.24443-21.2410270°24km/h4707m-17.2m/s-16.3°C7.6%0hPa0V08:17:0000:00:0000:00:00
DL9RDZ-12026-09-05 12:52:3364.24417-21.2422664°22km/h4869m-17.0m/s-17.6°C10.6%0hPa0V08:17:0000:00:0000:00:00
DL9RDZ-12026-09-05 12:52:2264.24389-21.2437269°24km/h5049m-17.4m/s-19.1°C12.0%0hPa0V08:17:0000:00:0000:00:00
DL9RDZ-12026-09-05 12:52:1264.24365-21.2449465°26km/h5215m-16.8m/s-20.4°C13.1%0hPa0V08:18:0000:00:0000:00:00
DL9RDZ-12026-09-05 12:52:0264.24336-21.2465275°29km/h5400m-17.6m/s-22.0°C15.9%0hPa0V08:18:0000:00:0000:00:00
DL9RDZ-12026-09-05 12:51:5164.24307-21.2482267°27km/h5587m-17.6m/s-23.6°C18.6%0hPa0V08:18:0000:00:0000:00:00
DL9RDZ-12026-09-05 12:51:4064.24271-21.2499763°31km/h5774m-18.1m/s-25.0°C23.4%0hPa0V08:18:0000:00:0000:00:00
DL9RDZ-12026-09-05 12:51:2864.24235-21.2518067°31km/h5968m-17.9m/s-26.7°C28.7%0hPa0V08:18:0000:00:0000:00:00
DL9RDZ-12026-09-05 12:51:1764.24197-21.2537765°33km/h6162m-18.3m/s-28.4°C34.9%0hPa0V08:19:0000:00:0000:00:00
DL9RDZ-12026-09-05 12:51:0664.24156-21.2557467°35km/h6357m-18.5m/s-29.8°C36.2%0hPa0V08:19:0000:00:0000:00:00
DL9RDZ-12026-09-05 12:50:5664.24120-21.2576565°38km/h6530m-18.9m/s-31.3°C37.7%0hPa0V08:19:0000:00:0000:00:00
DL9RDZ-12026-09-05 12:50:4664.24068-21.2597860°38km/h6726m-18.7m/s-32.5°C34.6%0hPa0V08:19:0000:00:0000:00:00
DL9RDZ-12026-09-05 12:50:3464.24013-21.2621764°44km/h6927m-18.5m/s-34.1°C37.6%0hPa0V08:20:0000:00:0000:00:00
DL9RDZ-12026-09-05 12:50:2464.23962-21.2644362°47km/h7111m-19.6m/s-35.6°C34.9%0hPa0V08:20:0000:00:0000:00:00
DL9RDZ-12026-09-05 12:50:1464.23894-21.2672663°53km/h7317m-19.9m/s-36.9°C33.2%0hPa0V08:20:0000:00:0000:00:00
DL9RDZ-12026-09-05 12:50:0364.23833-21.2701365°55km/h7514m-20.2m/s-38.5°C35.5%0hPa0V08:20:0000:00:0000:00:00
DL9RDZ-12026-09-05 12:49:5264.23763-21.2735464°60km/h7727m-21.1m/s-40.2°C35.0%0hPa0V08:20:0000:00:0000:00:00
DL9RDZ-12026-09-05 12:49:4164.23691-21.2771268°62km/h7941m-20.8m/s-42.0°C35.5%0hPa0V08:21:0000:00:0000:00:00
DL9RDZ-12026-09-05 12:49:3064.23630-21.2808371°62km/h8160m-20.9m/s-43.8°C34.7%0hPa0V08:21:0000:00:0000:00:00
DL9RDZ-12026-09-05 12:49:1964.23570-21.2845067°60km/h8376m-20.5m/s-45.1°C26.7%0hPa0V08:21:0000:00:0000:00:00
DL9RDZ-12026-09-05 12:49:0864.23499-21.2881266°64km/h8595m-21.0m/s-46.3°C28.1%0hPa0V08:21:0000:00:0000:00:00
DL9RDZ-12026-09-05 12:48:5864.23433-21.2915067°66km/h8802m-21.1m/s-47.6°C27.5%0hPa0V08:21:0000:00:0000:00:00
DL9RDZ-12026-09-05 12:48:4864.23369-21.2951972°62km/h9024m-21.3m/s-48.5°C23.1%0hPa0V08:22:0000:00:0000:00:00
DL9RDZ-12026-09-05 12:48:3664.23310-21.2990069°64km/h9252m-21.9m/s-48.8°C20.2%0hPa0V08:22:0000:00:0000:00:00
DL9RDZ-12026-09-05 12:48:2664.23240-21.3027365°68km/h9483m-21.2m/s-49.9°C18.2%0hPa0V08:22:0000:00:0000:00:00
DL9RDZ-12026-09-05 12:48:1564.23157-21.3066967°78km/h9695m-22.3m/s-50.2°C14.1%0hPa0V08:22:0000:00:0000:00:00
DL9RDZ-12026-09-05 12:48:0464.23061-21.3114366°88km/h9930m-22.5m/s-50.5°C9.6%0hPa0V08:22:0000:00:0000:00:00
DL9RDZ-12026-09-05 12:47:5464.22963-21.3162366°95km/h10147m-22.9m/s-50.0°C5.4%0hPa0V08:23:0000:00:0000:00:00
DL9RDZ-12026-09-05 12:47:4464.22858-21.3212965°99km/h10366m-23.2m/s-49.7°C3.8%0hPa0V08:23:0000:00:0000:00:00
DL9RDZ-12026-09-05 12:47:3464.22751-21.3265369°97km/h10590m-23.8m/s-49.4°C2.6%0hPa0V08:23:0000:00:0000:00:00
DL9RDZ-12026-09-05 12:47:2464.22657-21.3317869°89km/h10849m-25.1m/s-48.7°C2.0%0hPa0V08:23:0000:00:0000:00:00
DL9RDZ-12026-09-05 12:47:1264.22579-21.3371477°80km/h11107m-24.2m/s-48.6°C1.8%0hPa0V08:23:0000:00:0000:00:00
DL9RDZ-12026-09-05 12:47:0264.22530-21.3413674°77km/h11344m-24.4m/s-48.1°C1.5%0hPa0V08:23:0000:00:0000:00:00
DL9RDZ-12026-09-05 12:46:5264.22465-21.3454469°77km/h11582m-24.3m/s-48.3°C1.5%0hPa0V08:23:0000:00:0000:00:00
DL9RDZ-12026-09-05 12:46:4364.22407-21.3498578°73km/h11822m-24.2m/s-47.6°C1.3%0hPa0V08:23:0000:00:0000:00:00
DL9RDZ-12026-09-05 12:46:3264.22366-21.3539473°71km/h12073m-24.8m/s-48.4°C1.4%0hPa0V08:23:0000:00:0000:00:00
DL9RDZ-12026-09-05 12:46:2264.22296-21.3579966°64km/h12343m-25.3m/s-47.4°C1.3%0hPa0V08:23:0000:00:0000:00:00
DL9RDZ-12026-09-05 12:46:1164.22227-21.3616065°62km/h12623m-25.6m/s-46.9°C1.1%0hPa0V08:24:0000:00:0000:00:00
DL9RDZ-12026-09-05 12:45:5964.22153-21.3651567°66km/h12913m-26.6m/s-46.0°C1.0%0hPa0V08:24:0000:00:0000:00:00
DL9RDZ-12026-09-05 12:45:3864.22043-21.3713865°47km/h13475m-28.6m/s-46.3°C1.0%0hPa0V08:24:0000:00:0000:00:00
DL9RDZ-12026-09-05 12:45:2764.21985-21.3741860°51km/h13757m-26.5m/s-46.6°C1.0%0hPa0V08:25:0000:00:0000:00:00
DL9RDZ-12026-09-05 12:45:1764.21922-21.3773576°53km/h14039m-26.4m/s-46.9°C1.0%0hPa0V08:25:0000:00:0000:00:00
DL9RDZ-12026-09-05 12:45:0564.21882-21.3802670°46km/h14317m-25.6m/s-47.4°C1.0%0hPa0V08:25:0000:00:0000:00:00
DL9RDZ-12026-09-05 12:44:5564.21832-21.3825959°47km/h14570m-26.0m/s-47.4°C1.0%0hPa0V08:25:0000:00:0000:00:00
DL9RDZ-12026-09-05 12:44:4564.21781-21.3852875°49km/h14823m-25.7m/s-48.0°C1.1%0hPa0V08:25:0000:00:0000:00:00
DL9RDZ-12026-09-05 12:44:3464.21738-21.3883370°49km/h15101m-27.0m/s-49.0°C1.1%0hPa0V08:26:0000:00:0000:00:00
DL9RDZ-12026-09-05 12:44:2364.21691-21.3911276°42km/h15402m-31.9m/s-47.8°C1.0%0hPa0V08:26:0000:00:0000:00:00
DL9RDZ-12026-09-05 12:44:1264.21655-21.3933366°37km/h15759m-31.4m/s-49.3°C1.1%0hPa0V08:26:0000:00:0000:00:00
DL9RDZ-12026-09-05 12:44:0264.21624-21.3953480°40km/h16076m-33.0m/s-49.2°C1.1%0hPa0V08:26:0000:00:0000:00:00
DL9RDZ-12026-09-05 12:43:5264.21615-21.3973779°31km/h16410m-34.8m/s-48.4°C1.0%0hPa0V08:26:0000:00:0000:00:00
DL9RDZ-12026-09-05 12:43:4164.21571-21.3990951°38km/h16789m-36.8m/s-48.3°C0.9%0hPa0V08:27:0000:00:0000:00:00
DL9RDZ-12026-09-05 12:43:3164.21529-21.4011574°35km/h17146m-36.3m/s-48.5°C1.0%0hPa0V08:27:0000:00:0000:00:00
DL9RDZ-12026-09-05 12:43:2064.21514-21.4030882°29km/h17547m-36.1m/s-48.8°C1.0%0hPa0V08:27:0000:00:0000:00:00
DL9RDZ-12026-09-05 12:43:1164.21483-21.4049075°37km/h17910m-38.3m/s-47.7°C0.9%0hPa0V08:27:0000:00:0000:00:00
DL9RDZ-12026-09-05 12:43:0064.21455-21.4065366°31km/h18289m-39.1m/s-47.4°C0.9%0hPa0V08:27:0000:00:0000:00:00
DL9RDZ-12026-09-05 12:42:4964.21412-21.4081353°29km/h18716m-39.1m/s-47.3°C0.8%0hPa0V08:28:0000:00:0000:00:00
DL9RDZ-12026-09-05 12:42:3864.21357-21.4098568°37km/h19160m-40.2m/s-48.2°C0.9%0hPa0V08:28:0000:00:0000:00:00
DL9RDZ-12026-09-05 12:42:2864.21323-21.4114654°35km/h19586m-43.7m/s-49.2°C0.9%0hPa0V08:28:0000:00:0000:00:00
DL9RDZ-12026-09-05 12:42:1864.21276-21.4134672°42km/h20024m-44.1m/s-49.6°C0.9%0hPa0V08:28:0000:00:0000:00:00
DL9RDZ-12026-09-05 12:42:0864.21244-21.4158969°38km/h20499m-43.6m/s-49.8°C0.9%0hPa0V08:28:0000:00:0000:00:00
DL9RDZ-12026-09-05 12:41:5664.21198-21.4182370°40km/h20996m-48.0m/s-49.1°C0.9%0hPa0V08:28:0000:00:0000:00:00
DL9RDZ-12026-09-05 12:41:4564.21172-21.4206879°38km/h21511m-46.4m/s-49.0°C0.9%0hPa0V08:28:0000:00:0000:00:00
DL9RDZ-12026-09-05 12:41:3564.21142-21.4229970°38km/h22025m-49.3m/s-47.5°C0.8%0hPa0V08:28:0000:00:0000:00:00
DL9RDZ-12026-09-05 12:41:2464.21119-21.4247870°29km/h22536m-52.7m/s-48.1°C0.8%0hPa0V08:28:0000:00:0000:00:00
DL9RDZ-12026-09-05 12:41:1464.21099-21.4260167°16km/h23047m-51.8m/s-48.1°C0.8%0hPa0V08:29:0000:00:0000:00:00
DL9RDZ-12026-09-05 12:41:0464.21075-21.4271161°26km/h23631m-55.6m/s-47.2°C0.8%0hPa0V08:29:0000:00:0000:00:00
DL9RDZ-12026-09-05 12:40:5264.21029-21.4286447°33km/h24254m-57.3m/s-45.8°C0.7%0hPa0V08:29:0000:00:0000:00:00
DL9RDZ-12026-09-05 12:40:4264.20972-21.4298646°33km/h24838m-60.2m/s-46.7°C0.7%0hPa0V08:29:0000:00:0000:00:00
DL9RDZ-12026-09-05 12:40:3264.20918-21.4316660°33km/h25514m-62.9m/s-46.8°C0.7%0hPa0V08:29:0000:00:0000:00:00
DL9RDZ-12026-09-05 12:40:2164.20870-21.4330743°27km/h26151m-65.5m/s-45.4°C0.6%0hPa0V00:00:0000:00:0000:00:00
DL9RDZ-12026-09-05 12:40:1064.20830-21.4343261°20km/h26861m-67.8m/s-46.5°C0.7%0hPa0V00:00:0000:00:0000:00:00
DL9RDZ-12026-09-05 12:39:5964.20804-21.4356065°24km/h27604m-67.1m/s-45.5°C0.6%0hPa0V00:00:0000:00:0000:00:00
DL9RDZ-12026-09-05 12:39:4864.20762-21.4372970°29km/h28237m-41.1m/s-47.4°C0.7%0hPa0V00:00:0000:00:0000:00:00
DL9RDZ-12026-09-05 12:39:3864.20741-21.4386673°31km/h28357m5.7m/s-47.9°C0.8%0hPa0V00:00:0000:00:0000:00:00
DL9RDZ-12026-09-05 12:39:2864.20718-21.4404359°26km/h28296m5.6m/s-47.5°C0.7%0hPa0V00:00:0000:00:0000:00:00
DL9RDZ-12026-09-05 12:39:1864.20682-21.4422376°38km/h28232m5.4m/s-47.6°C0.7%0hPa0V00:00:0000:00:0000:00:00
DL9RDZ-12026-09-05 12:39:0664.20630-21.4438870°33km/h28168m5.9m/s-47.8°C0.8%0hPa0V00:00:0000:00:0000:00:00
DL9RDZ-12026-09-05 12:38:5564.20564-21.4456345°37km/h28104m6.6m/s-47.3°C0.7%0hPa0V00:00:0000:00:0000:00:00
DL9RDZ-12026-09-05 12:38:4464.20503-21.4471135°40km/h28040m6.1m/s-47.2°C0.7%0hPa0V00:00:0000:00:0000:00:00
DL9RDZ-12026-09-05 12:38:3464.20451-21.4484356°26km/h27981m6.1m/s-47.0°C0.7%0hPa0V00:00:0000:00:0000:00:00
DL9RDZ-12026-09-05 12:38:2364.20415-21.4496379°22km/h27917m5.7m/s-46.9°C0.7%0hPa0V00:00:0000:00:0000:00:00
DL9RDZ-12026-09-05 12:38:1364.20389-21.4508872°18km/h27860m4.9m/s-46.6°C0.7%0hPa0V00:00:0000:00:0000:00:00
DL9RDZ-12026-09-05 12:38:0364.20373-21.4519947°20km/h27798m4.5m/s-46.4°C0.7%0hPa0V00:00:0000:00:0000:00:00
DL9RDZ-12026-09-05 12:37:5264.20373-21.4529081°16km/h27735m6.4m/s-46.4°C0.7%0hPa0V00:00:0000:00:0000:00:00
DL9RDZ-12026-09-05 12:37:4064.20367-21.45400126°22km/h27672m4.9m/s-46.6°C0.7%0hPa0V00:00:0000:00:0000:00:00
DL9RDZ-12026-09-05 12:37:3064.20374-21.4550784°22km/h27617m5.8m/s-46.5°C0.7%0hPa0V00:00:0000:00:0000:00:00
DL9RDZ-12026-09-05 12:37:0964.20356-21.4570369°16km/h27498m5.5m/s-46.3°C0.7%0hPa0V00:00:0000:00:0000:00:00
DL9RDZ-12026-09-05 12:36:5864.20328-21.4576963°9km/h27438m4.5m/s-46.5°C0.7%0hPa0V00:00:0000:00:0000:00:00
DL9RDZ-12026-09-05 12:36:4964.20304-21.4587849°22km/h27380m4.5m/s-46.7°C0.7%0hPa0V00:00:0000:00:0000:00:00
DL9RDZ-12026-09-05 12:36:3864.20277-21.4598460°27km/h27323m5.3m/s-46.9°C0.7%0hPa0V00:00:0000:00:0000:00:00
DL9RDZ-12026-09-05 12:36:2864.20237-21.4611464°27km/h27265m4.8m/s-47.0°C0.7%0hPa0V00:00:0000:00:0000:00:00
DL9RDZ-12026-09-05 12:36:1864.20197-21.4625652°24km/h27202m6.0m/s-47.1°C0.7%0hPa0V00:00:0000:00:0000:00:00
DL9RDZ-12026-09-05 12:36:0664.20148-21.4636550°38km/h27138m6.3m/s-47.2°C0.7%0hPa0V00:00:0000:00:0000:00:00
DL9RDZ-12026-09-05 12:35:5664.20088-21.4647822°22km/h27081m5.5m/s-47.1°C0.7%0hPa0V00:00:0000:00:0000:00:00
DL9RDZ-12026-09-05 12:35:4764.20030-21.4659559°35km/h27021m5.1m/s-47.1°C0.7%0hPa0V00:00:0000:00:0000:00:00
DL9RDZ-12026-09-05 12:35:3664.19977-21.4669949°27km/h26962m5.8m/s-47.3°C0.7%0hPa0V00:00:0000:00:0000:00:00
DL9RDZ-12026-09-05 12:35:2664.19936-21.4681039°24km/h26898m5.5m/s-47.4°C0.7%0hPa0V00:00:0000:00:0000:00:00
DL9RDZ-12026-09-05 12:35:1464.19913-21.4693866°18km/h26831m6.6m/s-47.4°C0.7%0hPa0V00:00:0000:00:0000:00:00
DL9RDZ-12026-09-05 12:35:0464.19881-21.4707669°27km/h26766m5.5m/s-47.5°C0.7%0hPa0V00:00:0000:00:0000:00:00
DL9RDZ-12026-09-05 12:34:5364.19850-21.4721262°31km/h26708m6.7m/s-47.4°C0.7%0hPa0V00:00:0000:00:0000:00:00
DL9RDZ-12026-09-05 12:34:4264.19788-21.4735651°31km/h26642m4.7m/s-47.3°C0.7%0hPa0V00:00:0000:00:0000:00:00
DL9RDZ-12026-09-05 12:34:3264.19732-21.4752149°40km/h26583m5.9m/s-47.1°C0.7%0hPa0V00:00:0000:00:0000:00:00
DL9RDZ-12026-09-05 12:34:2164.19653-21.4768442°38km/h26520m5.4m/s-46.9°C0.7%0hPa0V00:00:0000:00:0000:00:00
DL9RDZ-12026-09-05 12:34:1164.19585-21.4786047°35km/h26455m6.2m/s-47.2°C0.8%0hPa0V00:00:0000:00:0000:00:00
DL9RDZ-12026-09-05 12:34:0064.19527-21.4802942°35km/h26396m5.9m/s-47.5°C0.7%0hPa0V00:00:0000:00:0000:00:00
DL9RDZ-12026-09-05 12:33:5164.19475-21.4814746°27km/h26337m4.2m/s-47.5°C0.8%0hPa0V00:00:0000:00:0000:00:00
DL9RDZ-12026-09-05 12:33:3964.19400-21.4824032°26km/h26276m6.1m/s-47.2°C0.8%0hPa0V00:00:0000:00:0000:00:00
DL9RDZ-12026-09-05 12:33:2964.19334-21.4832434°29km/h26213m4.9m/s-47.0°C0.7%0hPa0V00:00:0000:00:0000:00:00
DL9RDZ-12026-09-05 12:33:1764.19282-21.4841546°29km/h26153m6.3m/s-47.3°C0.7%0hPa0V00:00:0000:00:0000:00:00
DL9RDZ-12026-09-05 12:33:0664.19247-21.4855854°26km/h26094m5.4m/s-47.4°C0.7%0hPa0V00:00:0000:00:0000:00:00
DL9RDZ-12026-09-05 12:32:5664.19208-21.4869962°29km/h26040m5.2m/s-47.9°C0.8%0hPa0V00:00:0000:00:0000:00:00
DL9RDZ-12026-09-05 12:32:4664.19188-21.4889582°27km/h25981m5.5m/s-47.9°C0.8%0hPa0V00:00:0000:00:0000:00:00
DL9RDZ-12026-09-05 12:32:3664.19169-21.4907279°31km/h25928m6.1m/s-48.0°C0.8%0hPa0V00:00:0000:00:0000:00:00
DL9RDZ-12026-09-05 12:32:2564.19151-21.4927774°33km/h25871m6.3m/s-48.1°C0.8%0hPa0V00:00:0000:00:0000:00:00
DL9RDZ-12026-09-05 12:32:1464.19109-21.4948968°44km/h25810m5.2m/s-48.1°C0.8%0hPa0V00:00:0000:00:0000:00:00
DL9RDZ-12026-09-05 12:32:0464.19070-21.4967161°44km/h25753m5.5m/s-48.2°C0.8%0hPa0V00:00:0000:00:0000:00:00
DL9RDZ-12026-09-05 12:31:5564.19019-21.4986350°29km/h25699m4.7m/s-48.0°C0.8%0hPa0V00:00:0000:00:0000:00:00
DL9RDZ-12026-09-05 12:31:4364.18957-21.5009067°35km/h25637m6.0m/s-47.9°C0.8%0hPa0V00:00:0000:00:0000:00:00
DL9RDZ-12026-09-05 12:31:3264.18903-21.5029662°46km/h25576m6.3m/s-47.9°C0.8%0hPa0V00:00:0000:00:0000:00:00
DL9RDZ-12026-09-05 12:31:2264.18868-21.5047064°31km/h25519m6.5m/s-47.8°C0.8%0hPa0V00:00:0000:00:0000:00:00
DL9RDZ-12026-09-05 12:31:1164.18819-21.5067263°31km/h25459m4.9m/s-47.7°C0.8%0hPa0V00:00:0000:00:0000:00:00
DL9RDZ-12026-09-05 12:31:0164.18763-21.5087350°40km/h25398m4.9m/s-47.8°C0.8%0hPa0V00:00:0000:00:0000:00:00
DL9RDZ-12026-09-05 12:30:5064.18706-21.5103253°38km/h25341m6.6m/s-47.6°C0.8%0hPa0V00:00:0000:00:0000:00:00
DL9RDZ-12026-09-05 12:30:4064.18646-21.5115550°26km/h25284m5.6m/s-47.4°C0.8%0hPa0V00:00:0000:00:0000:00:00
DL9RDZ-12026-09-05 12:30:3064.18590-21.5129341°33km/h25227m4.6m/s-47.4°C0.8%0hPa0V00:00:0000:00:0000:00:00
DL9RDZ-12026-09-05 12:30:1964.18543-21.5145158°44km/h25163m5.0m/s-47.7°C0.8%0hPa0V00:00:0000:00:0000:00:00
DL9RDZ-12026-09-05 12:30:0864.18496-21.5162256°37km/h25101m4.9m/s-47.6°C0.8%0hPa0V00:00:0000:00:0000:00:00
DL9RDZ-12026-09-05 12:29:5764.18432-21.5181452°35km/h25039m6.3m/s-47.3°C0.8%0hPa0V00:00:0000:00:0000:00:00
DL9RDZ-12026-09-05 12:29:4664.18364-21.5198650°35km/h24977m4.7m/s-47.0°C0.7%0hPa0V00:00:0000:00:0000:00:00
DL9RDZ-12026-09-05 12:29:3664.18310-21.5211051°35km/h24913m5.1m/s-47.0°C0.8%0hPa0V00:00:0000:00:0000:00:00
DL9RDZ-12026-09-05 12:29:2464.18249-21.5221237°22km/h24853m6.3m/s-47.2°C0.8%0hPa0V00:00:0000:00:0000:00:00
DL9RDZ-12026-09-05 12:29:1364.18198-21.5230318°27km/h24793m4.0m/s-46.9°C0.8%0hPa0V00:00:0000:00:0000:00:00
DL9RDZ-12026-09-05 12:29:0364.18147-21.5237629°26km/h24738m6.0m/s-46.8°C0.8%0hPa0V00:00:0000:00:0000:00:00
DL9RDZ-12026-09-05 12:28:5264.18083-21.5240921°24km/h24679m5.3m/s-46.5°C0.8%0hPa0V00:00:0000:00:0000:00:00
DL9RDZ-12026-09-05 12:28:4264.18017-21.5246929°24km/h24618m6.0m/s-46.4°C0.7%0hPa0V00:00:0000:00:0000:00:00
DL9RDZ-12026-09-05 12:28:3164.17959-21.5255835°27km/h24564m4.5m/s-46.3°C0.7%0hPa0V00:00:0000:00:0000:00:00
DL9RDZ-12026-09-05 12:28:2064.17888-21.5268641°33km/h24507m4.7m/s-46.3°C0.8%0hPa0V00:00:0000:00:0000:00:00
DL9RDZ-12026-09-05 12:28:0964.17820-21.5283243°37km/h24450m6.2m/s-46.3°C0.7%0hPa0V00:00:0000:00:0000:00:00
DL9RDZ-12026-09-05 12:28:0064.17765-21.5296948°35km/h24398m5.5m/s-46.6°C0.8%0hPa0V00:00:0000:00:0000:00:00
DL9RDZ-12026-09-05 12:27:4964.17708-21.5310646°26km/h24341m5.5m/s-46.7°C0.8%0hPa0V00:00:0000:00:0000:00:00
DL9RDZ-12026-09-05 12:27:3764.17667-21.5325356°26km/h24282m4.9m/s-46.6°C0.8%0hPa0V00:00:0000:00:0000:00:00
DL9RDZ-12026-09-05 12:27:2664.17628-21.5339571°26km/h24224m5.2m/s-46.4°C0.8%0hPa0V00:00:0000:00:0000:00:00
DL9RDZ-12026-09-05 12:27:1564.17583-21.5357155°29km/h24164m5.5m/s-46.2°C0.8%0hPa0V00:00:0000:00:0000:00:00
DL9RDZ-12026-09-05 12:27:0564.17553-21.5374080°35km/h24110m4.8m/s-46.3°C0.8%0hPa0V00:00:0000:00:0000:00:00
DL9RDZ-12026-09-05 12:26:5464.17528-21.5392677°38km/h24051m4.6m/s-46.5°C0.8%0hPa0V00:00:0000:00:0000:00:00
DL9RDZ-12026-09-05 12:26:4364.17508-21.5413476°33km/h23992m5.4m/s-46.5°C0.8%0hPa0V00:00:0000:00:0000:00:00
DL9RDZ-12026-09-05 12:26:3364.17486-21.5430865°24km/h23936m5.0m/s-46.6°C0.8%0hPa0V00:00:0000:00:0000:00:00
DL9RDZ-12026-09-05 12:26:2364.17450-21.5445748°22km/h23873m6.4m/s-47.0°C0.8%0hPa0V00:00:0000:00:0000:00:00
DL9RDZ-12026-09-05 12:26:1164.17422-21.5456867°27km/h23807m6.0m/s-47.4°C0.8%0hPa0V00:00:0000:00:0000:00:00
DL9RDZ-12026-09-05 12:26:0064.17393-21.5470286°24km/h23741m5.6m/s-47.9°C0.8%0hPa0V00:00:0000:00:0000:00:00
DL9RDZ-12026-09-05 12:25:5164.17394-21.5483791°31km/h23679m6.6m/s-48.1°C0.8%0hPa0V00:00:0000:00:0000:00:00
DL9RDZ-12026-09-05 12:25:3964.17395-21.5502699°29km/h23613m5.5m/s-48.8°C0.9%0hPa0V00:00:0000:00:0000:00:00
DL9RDZ-12026-09-05 12:25:2964.17389-21.5519681°22km/h23551m6.3m/s-49.2°C0.9%0hPa0V00:00:0000:00:0000:00:00
DL9RDZ-12026-09-05 12:25:1864.17382-21.5533684°18km/h23482m6.3m/s-49.5°C0.9%0hPa0V00:00:0000:00:0000:00:00
DL9RDZ-12026-09-05 12:25:0764.17370-21.5544869°24km/h23414m7.2m/s-49.5°C0.9%0hPa0V00:00:0000:00:0000:00:00
DL9RDZ-12026-09-05 12:24:5764.17358-21.5557790°16km/h23348m5.8m/s-49.3°C0.9%0hPa0V00:00:0000:00:0000:00:00
DL9RDZ-12026-09-05 12:24:4764.17368-21.55640124°15km/h23289m6.9m/s-49.1°C0.9%0hPa0V00:00:0000:00:0000:00:00
DL9RDZ-12026-09-05 12:24:3664.17373-21.5570393°9km/h23232m4.8m/s-48.9°C0.9%0hPa0V00:00:0000:00:0000:00:00
DL9RDZ-12026-09-05 12:24:2564.17381-21.55798100°16km/h23172m5.0m/s-48.7°C0.9%0hPa0V00:00:0000:00:0000:00:00
DL9RDZ-12026-09-05 12:24:1464.17384-21.5592993°24km/h23113m5.9m/s-48.5°C0.9%0hPa0V00:00:0000:00:0000:00:00
DL9RDZ-12026-09-05 12:24:0464.17372-21.5608285°31km/h23059m4.2m/s-48.2°C0.9%0hPa0V00:00:0000:00:0000:00:00
DL9RDZ-12026-09-05 12:23:5564.17359-21.5622278°27km/h23008m4.1m/s-48.0°C0.9%0hPa0V00:00:0000:00:0000:00:00
DL9RDZ-12026-09-05 12:23:4364.17347-21.5638095°27km/h22953m4.8m/s-48.4°C0.9%0hPa0V00:00:0000:00:0000:00:00
DL9RDZ-12026-09-05 12:23:3364.17348-21.5654296°29km/h22906m4.8m/s-48.2°C0.9%0hPa0V00:00:0000:00:0000:00:00
DL9RDZ-12026-09-05 12:23:2364.17347-21.5671079°31km/h22857m5.2m/s-48.1°C0.8%0hPa0V00:00:0000:00:0000:00:00
DL9RDZ-12026-09-05 12:23:1364.17339-21.5689482°24km/h22802m6.1m/s-48.5°C0.9%0hPa0V00:00:0000:00:0000:00:00
DL9RDZ-12026-09-05 12:23:0164.17325-21.5706486°31km/h22748m5.3m/s-49.1°C0.9%0hPa0V00:00:0000:00:0000:00:00
DL9RDZ-12026-09-05 12:22:5164.17313-21.5725177°37km/h22701m4.1m/s-49.5°C1.0%0hPa0V00:00:0000:00:0000:00:00
DL9RDZ-12026-09-05 12:22:4164.17291-21.5747186°38km/h22647m5.3m/s-49.6°C0.9%0hPa0V00:00:0000:00:0000:00:00
DL9RDZ-12026-09-05 12:22:3064.17264-21.5770784°40km/h22589m5.5m/s-49.6°C0.9%0hPa0V00:00:0000:00:0000:00:00
DL9RDZ-12026-09-05 12:22:1964.17247-21.5792373°35km/h22535m5.0m/s-49.5°C0.9%0hPa0V00:00:0000:00:0000:00:00
DL9RDZ-12026-09-05 12:22:0864.17229-21.5816374°35km/h22474m5.0m/s-49.4°C0.9%0hPa0V00:00:0000:00:0000:00:00
DL9RDZ-12026-09-05 12:21:5864.17207-21.5837383°35km/h22410m5.4m/s-49.1°C0.9%0hPa0V00:00:0000:00:0000:00:00
DL9RDZ-12026-09-05 12:21:4764.17187-21.5855677°35km/h22352m6.1m/s-49.3°C0.9%0hPa0V00:00:0000:00:0000:00:00
DL9RDZ-12026-09-05 12:21:3764.17155-21.5877167°40km/h22295m5.4m/s-49.4°C0.9%0hPa0V00:00:0000:00:0000:00:00
DL9RDZ-12026-09-05 12:21:2764.17106-21.5900060°47km/h22235m5.3m/s-49.1°C0.9%0hPa0V00:00:0000:00:0000:00:00
DL9RDZ-12026-09-05 12:21:0564.16964-21.5946460°44km/h22110m4.6m/s-49.1°C0.9%0hPa0V00:00:0000:00:0000:00:00
DL9RDZ-12026-09-05 12:20:5664.16910-21.5967262°38km/h22052m6.8m/s-49.0°C0.9%0hPa0V00:00:0000:00:0000:00:00
DL9RDZ-12026-09-05 12:20:4564.16873-21.5984970°37km/h21996m4.8m/s-49.0°C0.9%0hPa0V00:00:0000:00:0000:00:00
DL9RDZ-12026-09-05 12:20:3464.16840-21.6006974°35km/h21936m4.5m/s-49.5°C0.9%0hPa0V00:00:0000:00:0000:00:00
DL9RDZ-12026-09-05 12:20:2364.16830-21.6029282°40km/h21875m5.4m/s-49.6°C1.0%0hPa0V00:00:0000:00:0000:00:00
DL9RDZ-12026-09-05 12:20:1364.16817-21.6050375°40km/h21821m4.9m/s-49.5°C0.9%0hPa0V00:00:0000:00:0000:00:00
DL9RDZ-12026-09-05 12:20:0264.16782-21.6074074°35km/h21762m5.7m/s-49.8°C1.0%0hPa0V00:00:0000:00:0000:00:00
DL9RDZ-12026-09-05 12:19:5364.16736-21.6095372°40km/h21708m4.0m/s-49.8°C1.0%0hPa0V00:00:0000:00:0000:00:00
DL9RDZ-12026-09-05 12:19:4264.16695-21.6115669°38km/h21654m5.7m/s-50.1°C1.0%0hPa0V00:00:0000:00:0000:00:00
DL9RDZ-12026-09-05 12:19:3164.16663-21.6135670°29km/h21596m5.2m/s-49.8°C1.0%0hPa0V00:00:0000:00:0000:00:00
DL9RDZ-12026-09-05 12:19:2164.16647-21.6155475°42km/h21544m4.3m/s-49.9°C1.0%0hPa0V00:00:0000:00:0000:00:00
DL9RDZ-12026-09-05 12:19:1064.16640-21.6177587°33km/h21486m3.7m/s-49.9°C1.0%0hPa0V00:00:0000:00:0000:00:00
DL9RDZ-12026-09-05 12:19:0064.16632-21.6198886°35km/h21435m5.9m/s-49.9°C1.0%0hPa0V00:00:0000:00:0000:00:00
DL9RDZ-12026-09-05 12:18:4964.16618-21.6222584°35km/h21381m4.0m/s-49.8°C1.0%0hPa0V00:00:0000:00:0000:00:00
DL9RDZ-12026-09-05 12:18:3964.16601-21.6243376°44km/h21330m5.5m/s-49.7°C1.0%0hPa0V00:00:0000:00:0000:00:00
DL9RDZ-12026-09-05 12:18:3064.16574-21.6265275°40km/h21278m5.4m/s-49.9°C1.0%0hPa0V00:00:0000:00:0000:00:00
DL9RDZ-12026-09-05 12:18:1964.16537-21.6291870°37km/h21222m5.7m/s-49.8°C1.0%0hPa0V00:00:0000:00:0000:00:00
DL9RDZ-12026-09-05 12:18:0864.16492-21.6315857°31km/h21167m4.7m/s-49.6°C1.0%0hPa0V00:00:0000:00:0000:00:00
DL9RDZ-12026-09-05 12:17:5764.16441-21.6335361°40km/h21116m3.9m/s-49.6°C1.0%0hPa0V00:00:0000:00:0000:00:00
DL9RDZ-12026-09-05 12:17:4764.16403-21.6352260°37km/h21062m4.8m/s-49.7°C1.0%0hPa0V00:00:0000:00:0000:00:00
DL9RDZ-12026-09-05 12:17:3764.16363-21.6369957°35km/h21010m6.2m/s-50.0°C1.0%0hPa0V00:00:0000:00:0000:00:00
DL9RDZ-12026-09-05 12:17:2664.16303-21.6390851°38km/h20950m4.4m/s-49.8°C1.0%0hPa0V00:00:0000:00:0000:00:00
DL9RDZ-12026-09-05 12:17:1664.16253-21.6409667°42km/h20897m6.2m/s-50.0°C1.0%0hPa0V00:00:0000:00:0000:00:00
DL9RDZ-12026-09-05 12:17:0764.16206-21.6426060°27km/h20843m4.1m/s-49.6°C1.0%0hPa0V00:00:0000:00:0000:00:00
DL9RDZ-12026-09-05 12:16:5564.16156-21.6445158°35km/h20783m5.1m/s-49.6°C1.0%0hPa0V00:00:0000:00:0000:00:00
DL9RDZ-12026-09-05 12:16:4564.16110-21.6467463°44km/h20720m4.9m/s-49.7°C1.0%0hPa0V00:00:0000:00:0000:00:00
DL9RDZ-12026-09-05 12:16:3464.16060-21.6489472°38km/h20664m5.3m/s-49.7°C1.0%0hPa0V00:00:0000:00:0000:00:00
DL9RDZ-12026-09-05 12:16:2364.16025-21.6509261°29km/h20600m6.5m/s-49.9°C1.0%0hPa0V00:00:0000:00:0000:00:00
DL9RDZ-12026-09-05 12:16:1264.15974-21.6524355°27km/h20538m6.4m/s-49.6°C1.0%0hPa0V00:00:0000:00:0000:00:00
DL9RDZ-12026-09-05 12:16:0264.15936-21.6538954°35km/h20482m5.7m/s-49.6°C1.0%0hPa0V00:00:0000:00:0000:00:00
DL9RDZ-12026-09-05 12:15:5264.15918-21.6555473°35km/h20429m6.6m/s-49.5°C1.0%0hPa0V00:00:0000:00:0000:00:00
DL9RDZ-12026-09-05 12:15:4264.15894-21.6574992°33km/h20376m4.4m/s-49.4°C1.0%0hPa0V00:00:0000:00:0000:00:00
DL9RDZ-12026-09-05 12:15:2264.15838-21.6620361°40km/h20266m5.8m/s-49.7°C1.0%0hPa0V00:00:0000:00:0000:00:00
DL9RDZ-12026-09-05 12:15:1164.15802-21.6643468°42km/h20216m3.6m/s-49.6°C1.0%0hPa0V00:00:0000:00:0000:00:00
DL9RDZ-12026-09-05 12:15:0064.15765-21.6665884°47km/h20159m4.5m/s-49.6°C1.0%0hPa0V00:00:0000:00:0000:00:00
DL9RDZ-12026-09-05 12:14:5064.15741-21.6686567°35km/h20108m5.1m/s-49.8°C1.0%0hPa0V00:00:0000:00:0000:00:00
DL9RDZ-12026-09-05 12:14:3964.15702-21.6708260°33km/h20052m4.4m/s-49.9°C1.0%0hPa0V00:00:0000:00:0000:00:00
DL9RDZ-12026-09-05 12:14:2864.15669-21.6733372°42km/h19997m3.9m/s-49.6°C1.0%0hPa0V00:00:0000:00:0000:00:00
DL9RDZ-12026-09-05 12:14:1764.15623-21.6756765°44km/h19942m4.1m/s-49.9°C1.1%0hPa0V00:00:0000:00:0000:00:00
DL9RDZ-12026-09-05 12:14:0764.15560-21.6779464°44km/h19886m5.5m/s-49.8°C1.0%0hPa0V00:00:0000:00:0000:00:00
DL9RDZ-12026-09-05 12:13:4564.15433-21.6818639°40km/h19781m5.1m/s-49.6°C1.1%0hPa0V00:00:0000:00:0000:00:00
DL9RDZ-12026-09-05 12:13:3564.15370-21.6832946°35km/h19728m5.9m/s-49.5°C1.1%0hPa0V00:00:0000:00:0000:00:00
DL9RDZ-12026-09-05 12:13:1364.15267-21.6860357°24km/h19616m5.0m/s-49.9°C1.1%0hPa0V00:00:0000:00:0000:00:00
DL9RDZ-12026-09-05 12:13:0264.15233-21.6872653°29km/h19559m4.9m/s-49.9°C1.1%0hPa0V00:00:0000:00:0000:00:00
DL9RDZ-12026-09-05 12:12:5164.15208-21.6888081°24km/h19504m5.9m/s-50.0°C1.1%0hPa0V00:00:0000:00:0000:00:00
DL9RDZ-12026-09-05 12:12:4064.15188-21.6907376°33km/h19446m6.3m/s-49.8°C1.1%0hPa0V00:00:0000:00:0000:00:00
DL9RDZ-12026-09-05 12:12:3064.15152-21.6930969°42km/h19390m4.9m/s-49.4°C1.0%0hPa0V00:00:0000:00:0000:00:00
DL9RDZ-12026-09-05 12:12:1864.15108-21.6954467°47km/h19334m5.6m/s-49.7°C1.1%0hPa0V00:00:0000:00:0000:00:00
DL9RDZ-12026-09-05 12:12:0864.15057-21.6975752°42km/h19276m4.2m/s-49.5°C1.0%0hPa0V00:00:0000:00:0000:00:00
DL9RDZ-12026-09-05 12:11:5764.14996-21.6994851°35km/h19229m5.0m/s-49.6°C1.0%0hPa0V00:00:0000:00:0000:00:00
DL9RDZ-12026-09-05 12:11:4864.14936-21.7010354°37km/h19178m4.1m/s-49.4°C1.1%0hPa0V00:00:0000:00:0000:00:00
DL9RDZ-12026-09-05 12:11:3664.14860-21.7026542°40km/h19125m4.3m/s-49.4°C1.0%0hPa0V00:00:0000:00:0000:00:00
DL9RDZ-12026-09-05 12:11:2564.14767-21.7039935°38km/h19071m4.1m/s-49.5°C1.1%0hPa0V00:00:0000:00:0000:00:00
DL9RDZ-12026-09-05 12:11:1564.14696-21.7051749°29km/h19020m4.0m/s-49.3°C1.1%0hPa0V00:00:0000:00:0000:00:00
DL9RDZ-12026-09-05 12:11:0464.14640-21.7062246°24km/h18965m5.1m/s-49.2°C1.1%0hPa0V00:00:0000:00:0000:00:00
DL9RDZ-12026-09-05 12:10:5464.14584-21.7073449°31km/h18909m4.4m/s-49.0°C1.0%0hPa0V00:00:0000:00:0000:00:00
DL9RDZ-12026-09-05 12:10:4364.14540-21.7087244°31km/h18859m5.1m/s-49.2°C1.0%0hPa0V00:00:0000:00:0000:00:00
DL9RDZ-12026-09-05 12:10:3264.14489-21.7105863°37km/h18807m3.5m/s-49.0°C1.0%0hPa0V00:00:0000:00:0000:00:00
DL9RDZ-12026-09-05 12:10:2364.14442-21.7123261°33km/h18758m4.2m/s-48.9°C1.0%0hPa0V00:00:0000:00:0000:00:00
DL9RDZ-12026-09-05 12:10:1164.14400-21.7138566°26km/h18702m4.7m/s-48.7°C1.0%0hPa0V00:00:0000:00:0000:00:00
DL9RDZ-12026-09-05 12:10:0164.14368-21.7150265°26km/h18650m6.2m/s-48.5°C1.0%0hPa0V00:00:0000:00:0000:00:00
DL9RDZ-12026-09-05 12:09:5264.14348-21.7163456°18km/h18600m6.0m/s-48.4°C1.0%0hPa0V00:00:0000:00:0000:00:00
DL9RDZ-12026-09-05 12:09:4164.14324-21.7176487°24km/h18547m4.3m/s-48.2°C1.0%0hPa0V00:00:0000:00:0000:00:00
DL9RDZ-12026-09-05 12:09:2864.14315-21.7189284°20km/h18482m6.0m/s-48.0°C1.0%0hPa0V00:00:0000:00:0000:00:00
DL9RDZ-12026-09-05 12:09:1864.14295-21.7201663°26km/h18429m5.1m/s-48.0°C1.0%0hPa0V00:00:0000:00:0000:00:00
DL9RDZ-12026-09-05 12:09:0664.14262-21.7218271°35km/h18373m6.0m/s-48.2°C1.0%0hPa0V00:00:0000:00:0000:00:00
DL9RDZ-12026-09-05 12:08:5664.14240-21.7234670°33km/h18324m3.8m/s-47.9°C1.0%0hPa0V00:00:0000:00:0000:00:00
DL9RDZ-12026-09-05 12:08:4664.14205-21.7249258°22km/h18267m4.9m/s-47.9°C1.0%0hPa0V00:00:0000:00:0000:00:00
DL9RDZ-12026-09-05 12:08:3564.14186-21.7260656°20km/h18218m4.8m/s-48.1°C1.0%0hPa0V00:00:0000:00:0000:00:00
DL9RDZ-12026-09-05 12:08:2464.14171-21.7270374°18km/h18162m4.8m/s-47.8°C1.0%0hPa0V00:00:0000:00:0000:00:00
DL9RDZ-12026-09-05 12:08:1364.14153-21.7283290°27km/h18107m5.2m/s-47.6°C1.0%0hPa0V00:00:0000:00:0000:00:00
DL9RDZ-12026-09-05 12:08:0364.14128-21.7299387°29km/h18051m4.5m/s-47.6°C1.0%0hPa0V00:00:0000:00:0000:00:00
DL9RDZ-12026-09-05 12:07:5264.14114-21.7318375°33km/h18001m3.7m/s-47.9°C1.0%0hPa0V00:00:0000:00:0000:00:00
DL9RDZ-12026-09-05 12:07:4164.14081-21.7340970°40km/h17946m4.9m/s-47.8°C1.0%0hPa0V00:00:0000:00:0000:00:00
DL9RDZ-12026-09-05 12:07:3264.14046-21.7361168°46km/h17897m5.8m/s-48.1°C1.0%0hPa0V00:00:0000:00:0000:00:00
DL9RDZ-12026-09-05 12:07:2264.14005-21.7384065°40km/h17849m5.2m/s-48.5°C1.0%0hPa0V00:00:0000:00:0000:00:00
DL9RDZ-12026-09-05 12:07:1064.13954-21.7404556°33km/h17796m4.9m/s-48.7°C1.0%0hPa0V00:00:0000:00:0000:00:00
DL9RDZ-12026-09-05 12:06:5964.13908-21.7420869°26km/h17747m4.3m/s-49.1°C1.1%0hPa0V00:00:0000:00:0000:00:00
DL9RDZ-12026-09-05 12:06:4964.13885-21.7432564°26km/h17703m5.0m/s-49.2°C1.1%0hPa0V00:00:0000:00:0000:00:00
DL9RDZ-12026-09-05 12:06:3864.13879-21.74474110°24km/h17649m4.6m/s-49.0°C1.1%0hPa0V00:00:0000:00:0000:00:00
DL9RDZ-12026-09-05 12:06:2864.13892-21.74632108°33km/h17605m4.5m/s-48.9°C1.1%0hPa0V00:00:0000:00:0000:00:00
DL9RDZ-12026-09-05 12:06:1664.13911-21.74851102°37km/h17550m5.3m/s-48.6°C1.1%0hPa0V00:00:0000:00:0000:00:00
DL9RDZ-12026-09-05 12:05:0664.13789-21.7669869°38km/h17100m4.8m/s-48.7°C1.1%0hPa0V00:00:0000:00:0000:00:00
DL9RDZ-12026-09-05 12:04:3864.13773-21.7680667°42km/h17078m5.1m/s-49.0°C1.1%0hPa0V00:00:0000:00:0000:00:00
DL9RDZ-12026-09-05 12:04:2664.13713-21.7706258°49km/h17026m4.5m/s-48.7°C1.1%0hPa0V00:00:0000:00:0000:00:00
DL9RDZ-12026-09-05 12:03:0364.13306-21.7831475°27km/h16627m3.8m/s-49.5°C1.2%0hPa0V00:00:0000:00:0000:00:00
DL9RDZ-12026-09-05 12:02:5264.13287-21.7851082°31km/h16567m5.6m/s-49.4°C1.1%0hPa0V00:00:0000:00:0000:00:00
DL9RDZ-12026-09-05 12:02:4164.13281-21.7871697°33km/h16514m3.9m/s-49.3°C1.1%0hPa0V00:00:0000:00:0000:00:00
DL9RDZ-12026-09-05 12:02:3064.13271-21.7895791°44km/h16461m4.2m/s-49.4°C1.1%0hPa0V00:00:0000:00:0000:00:00
DL9RDZ-12026-09-05 12:02:1864.13264-21.7921978°47km/h16411m4.1m/s-49.6°C1.2%0hPa0V00:00:0000:00:0000:00:00
DL9RDZ-12026-09-05 12:02:0764.13251-21.7951180°44km/h16359m4.2m/s-49.1°C1.2%0hPa0V00:00:0000:00:0000:00:00
DL9RDZ-12026-09-05 12:01:5764.13239-21.7978286°42km/h16307m5.3m/s-48.7°C1.1%0hPa0V00:00:0000:00:0000:00:00
DL9RDZ-12026-09-05 12:01:4564.13231-21.8004286°38km/h16253m4.6m/s-48.9°C1.1%0hPa0V00:00:0000:00:0000:00:00
DL9RDZ-12026-09-05 12:01:3564.13238-21.8026487°40km/h16201m4.5m/s-49.0°C1.2%0hPa0V00:00:0000:00:0000:00:00
DL9RDZ-12026-09-05 12:01:2564.13236-21.8049674°40km/h16156m4.8m/s-49.3°C1.2%0hPa0V00:00:0000:00:0000:00:00
DL9RDZ-12026-09-05 12:01:1464.13220-21.8074683°46km/h16108m4.5m/s-49.4°C1.2%0hPa0V00:00:0000:00:0000:00:00
DL9RDZ-12026-09-05 12:01:0064.13201-21.8108888°44km/h16039m4.0m/s-49.4°C1.2%0hPa0V00:00:0000:00:0000:00:00
DL9RDZ-12026-09-05 12:00:5064.13190-21.8135379°42km/h15986m5.0m/s-49.3°C1.2%0hPa0V00:00:0000:00:0000:00:00
DL9RDZ-12026-09-05 12:00:3864.13178-21.8160481°40km/h15937m3.7m/s-49.0°C1.2%0hPa0V00:00:0000:00:0000:00:00
DL9RDZ-12026-09-05 12:00:2764.13165-21.8183576°40km/h15886m4.4m/s-48.8°C1.2%0hPa0V00:00:0000:00:0000:00:00
DL9RDZ-12026-09-05 11:58:5464.12873-21.8359466°40km/h15473m4.6m/s-48.3°C1.2%0hPa0V00:00:0000:00:0000:00:00
DL9RDZ-12026-09-05 11:58:4364.12823-21.8386370°49km/h15415m4.7m/s-48.3°C1.2%0hPa0V00:00:0000:00:0000:00:00
DL9RDZ-12026-09-05 11:58:3164.12776-21.8417066°49km/h15363m3.4m/s-48.9°C1.2%0hPa0V00:00:0000:00:0000:00:00
DL9RDZ-12026-09-05 11:58:0764.12665-21.8473065°47km/h15250m4.1m/s-49.0°C1.2%0hPa0V00:00:0000:00:0000:00:00
DL9RDZ-12026-09-05 11:57:4264.12555-21.8540668°51km/h15130m4.8m/s-49.0°C1.2%0hPa0V00:00:0000:00:0000:00:00
DL9RDZ-12026-09-05 11:57:2464.12470-21.8589870°47km/h15044m3.9m/s-48.7°C1.2%0hPa0V00:00:0000:00:0000:00:00
DL9RDZ-12026-09-05 11:57:1064.12411-21.8626268°53km/h14977m4.5m/s-48.4°C1.2%0hPa0V00:00:0000:00:0000:00:00
DL9RDZ-12026-09-05 11:56:5964.12368-21.8655072°46km/h14923m4.1m/s-48.1°C1.2%0hPa0V00:00:0000:00:0000:00:00
DL9RDZ-12026-09-05 11:55:4364.11977-21.8856961°46km/h14569m4.1m/s-47.7°C1.2%0hPa0V00:00:0000:00:0000:00:00
DL9RDZ-12026-09-05 11:55:3264.11925-21.8881068°42km/h14521m4.8m/s-47.6°C1.2%0hPa0V00:00:0000:00:0000:00:00
DL9RDZ-12026-09-05 11:55:1764.11884-21.8912872°44km/h14458m4.9m/s-47.4°C1.2%0hPa0V00:00:0000:00:0000:00:00
DL9RDZ-12026-09-05 11:55:0664.11847-21.8940581°47km/h14411m3.0m/s-47.2°C1.2%0hPa0V00:00:0000:00:0000:00:00
DL9RDZ-12026-09-05 11:53:3964.11588-21.9181481°55km/h14037m4.4m/s-46.7°C1.3%0hPa0V00:00:0000:00:0000:00:00
DL9RDZ-12026-09-05 11:49:5864.10440-21.9773468°60km/h13055m4.0m/s-47.2°C1.3%0hPa0V00:00:0000:00:0000:00:00
DL9RDZ-12026-09-05 11:49:0464.10188-21.9923074°47km/h12817m3.4m/s-47.0°C1.4%0hPa0V00:00:0000:00:0000:00:00
DL9RDZ-12026-09-05 11:47:1664.09700-22.0233872°57km/h12361m4.4m/s-46.7°C1.5%0hPa0V00:00:0000:00:0000:00:00
DL9RDZ-12026-09-05 11:47:0664.09659-22.0263676°55km/h12317m4.9m/s-46.6°C1.5%0hPa0V00:00:0000:00:0000:00:00
DL9RDZ-12026-09-05 11:46:4764.09556-22.0322567°62km/h12232m4.0m/s-46.8°C1.5%0hPa0V00:00:0000:00:0000:00:00
DL9RDZ-12026-09-05 11:46:3064.09470-22.0381680°62km/h12160m3.3m/s-47.4°C1.6%0hPa0V00:00:0000:00:0000:00:00
DL9RDZ-12026-09-05 11:46:1964.09425-22.0423272°71km/h12112m4.8m/s-47.4°C1.6%0hPa0V00:00:0000:00:0000:00:00
DL9RDZ-12026-09-05 11:46:0864.09363-22.0464064°69km/h12061m4.7m/s-47.7°C1.6%0hPa0V00:00:0000:00:0000:00:00
DL9RDZ-12026-09-05 11:45:4864.09225-22.0536374°73km/h11977m4.0m/s-47.5°C1.6%0hPa0V00:00:0000:00:0000:00:00
DL9RDZ-12026-09-05 11:45:3764.09164-22.0579474°73km/h11931m4.4m/s-47.1°C1.5%0hPa0V00:00:0000:00:0000:00:00
DL9RDZ-12026-09-05 11:45:2064.09074-22.0651675°80km/h11855m4.4m/s-47.0°C1.5%0hPa0V00:00:0000:00:0000:00:00
DL9RDZ-12026-09-05 11:44:5064.08899-22.0777872°77km/h11729m4.3m/s-47.5°C1.7%0hPa0V00:00:0000:00:0000:00:00
DL9RDZ-12026-09-05 11:44:2864.08742-22.0876566°86km/h11638m3.9m/s-48.1°C1.8%0hPa0V00:00:0000:00:0000:00:00
DL9RDZ-12026-09-05 11:44:1464.08622-22.0935863°77km/h11581m4.5m/s-48.3°C1.8%0hPa0V00:00:0000:00:0000:00:00
DL9RDZ-12026-09-05 11:43:5964.08485-22.0991362°71km/h11520m3.8m/s-48.3°C1.8%0hPa0V00:00:0000:00:0000:00:00
DL9RDZ-12026-09-05 11:43:4664.08384-22.1039466°69km/h11469m3.2m/s-48.5°C1.9%0hPa0V00:00:0000:00:0000:00:00
DL9RDZ-12026-09-05 11:43:3664.08321-22.1076971°71km/h11428m3.4m/s-48.5°C2.0%0hPa0V00:00:0000:00:0000:00:00
DL9RDZ-12026-09-05 11:43:2164.08231-22.1137674°77km/h11367m5.5m/s-48.7°C2.0%0hPa0V00:00:0000:00:0000:00:00
DL9RDZ-12026-09-05 11:42:5064.08010-22.1282772°80km/h11230m3.7m/s-48.8°C2.2%0hPa0V00:00:0000:00:0000:00:00
DL9RDZ-12026-09-05 11:42:3964.07938-22.1326872°84km/h11188m3.7m/s-48.7°C2.2%0hPa0V00:00:0000:00:0000:00:00
DL9RDZ-12026-09-05 11:42:2964.07873-22.1371776°84km/h11146m4.3m/s-48.8°C2.3%0hPa0V00:00:0000:00:0000:00:00
DL9RDZ-12026-09-05 11:41:5064.07556-22.1549865°84km/h10977m4.1m/s-47.9°C2.3%0hPa0V00:00:0000:00:0000:00:00
DL9RDZ-12026-09-05 11:41:3964.07455-22.1597064°86km/h10930m4.4m/s-47.9°C2.3%0hPa0V00:00:0000:00:0000:00:00
DL9RDZ-12026-09-05 11:41:2864.07343-22.1645966°86km/h10881m5.2m/s-48.0°C2.4%0hPa0V00:00:0000:00:0000:00:00
DL9RDZ-12026-09-05 11:41:1764.07239-22.1696667°86km/h10830m4.1m/s-48.0°C2.5%0hPa0V00:00:0000:00:0000:00:00
DL9RDZ-12026-09-05 11:41:0664.07145-22.1744366°84km/h10781m3.9m/s-47.8°C2.5%0hPa0V00:00:0000:00:0000:00:00
DL9RDZ-12026-09-05 11:40:5364.07048-22.1799070°75km/h10727m4.1m/s-47.9°C2.6%0hPa0V00:00:0000:00:0000:00:00
DL9RDZ-12026-09-05 11:40:4264.06972-22.1845173°84km/h10681m4.1m/s-47.5°C2.7%0hPa0V00:00:0000:00:0000:00:00
DL9RDZ-12026-09-05 11:40:3164.06896-22.1893070°80km/h10634m3.8m/s-48.0°C2.8%0hPa0V00:00:0000:00:0000:00:00
DL9RDZ-12026-09-05 11:40:0964.06723-22.1996671°95km/h10540m4.6m/s-48.4°C3.5%0hPa0V00:00:0000:00:0000:00:00
DL9RDZ-12026-09-05 11:39:5864.06627-22.2051966°99km/h10495m3.6m/s-48.8°C4.2%0hPa0V00:00:0000:00:0000:00:00
DL9RDZ-12026-09-05 11:39:4864.06528-22.2100165°89km/h10455m4.2m/s-48.9°C4.9%0hPa0V00:00:0000:00:0000:00:00
DL9RDZ-12026-09-05 11:39:3764.06409-22.2150763°93km/h10413m4.6m/s-49.2°C5.8%0hPa0V00:00:0000:00:0000:00:00
DL9RDZ-12026-09-05 11:39:2664.06286-22.2204161°91km/h10364m4.0m/s-49.1°C7.0%0hPa0V00:00:0000:00:0000:00:00
DL9RDZ-12026-09-05 11:39:1764.06177-22.2247666°80km/h10320m6.1m/s-49.9°C8.8%0hPa0V00:00:0000:00:0000:00:00
DL9RDZ-12026-09-05 11:39:0564.06077-22.2293766°80km/h10269m3.8m/s-50.2°C10.2%0hPa0V00:00:0000:00:0000:00:00
DL9RDZ-12026-09-05 11:38:5464.05984-22.2340967°84km/h10224m3.7m/s-50.3°C11.8%0hPa0V00:00:0000:00:0000:00:00
DL9RDZ-12026-09-05 11:38:4164.05851-22.2401364°88km/h10171m4.4m/s-51.0°C14.1%0hPa0V00:00:0000:00:0000:00:00
DL9RDZ-12026-09-05 11:38:3164.05759-22.2447470°84km/h10128m5.3m/s-51.0°C14.9%0hPa0V00:00:0000:00:0000:00:00
DL9RDZ-12026-09-05 11:38:2164.05679-22.2489064°77km/h10087m3.4m/s-51.2°C16.7%0hPa0V00:00:0000:00:0000:00:00
DL9RDZ-12026-09-05 11:38:1064.05583-22.2535364°82km/h10043m3.7m/s-51.4°C17.2%0hPa0V00:00:0000:00:0000:00:00
DL9RDZ-12026-09-05 11:38:0064.05499-22.2578068°80km/h10007m4.3m/s-51.2°C17.1%0hPa0V00:00:0000:00:0000:00:00
DL9RDZ-12026-09-05 11:37:5064.05417-22.2617965°73km/h9965m5.0m/s-50.9°C16.8%0hPa0V00:00:0000:00:0000:00:00
DL9RDZ-12026-09-05 11:37:2964.05243-22.2699964°75km/h9880m4.4m/s-50.6°C19.0%0hPa0V00:00:0000:00:0000:00:00
DL9RDZ-12026-09-05 11:37:1964.05164-22.2739868°77km/h9837m4.4m/s-51.2°C22.0%0hPa0V00:00:0000:00:0000:00:00
DL9RDZ-12026-09-05 11:37:0864.05088-22.2783470°71km/h9791m4.7m/s-51.2°C22.9%0hPa0V00:00:0000:00:0000:00:00
DL9RDZ-12026-09-05 11:36:5864.05025-22.2819870°68km/h9751m4.4m/s-51.3°C22.9%0hPa0V00:00:0000:00:0000:00:00
DL9RDZ-12026-09-05 11:36:4864.04952-22.2856064°71km/h9709m4.6m/s-51.2°C23.1%0hPa0V00:00:0000:00:0000:00:00
DL9RDZ-12026-09-05 11:36:3764.04871-22.2896066°68km/h9666m4.8m/s-50.9°C23.4%0hPa0V00:00:0000:00:0000:00:00
DL9RDZ-12026-09-05 11:36:2664.04793-22.2934066°64km/h9619m4.6m/s-50.7°C23.0%0hPa0V00:00:0000:00:0000:00:00
DL9RDZ-12026-09-05 11:36:1664.04733-22.2965865°58km/h9577m4.1m/s-50.5°C23.2%0hPa0V00:00:0000:00:0000:00:00
DL9RDZ-12026-09-05 11:36:0564.04671-22.3000467°62km/h9533m3.6m/s-50.4°C23.1%0hPa0V00:00:0000:00:0000:00:00
DL9RDZ-12026-09-05 11:35:5564.04615-22.3033671°64km/h9495m4.0m/s-50.3°C23.6%0hPa0V00:00:0000:00:0000:00:00
DL9RDZ-12026-09-05 11:35:4464.04549-22.3071967°66km/h9450m4.4m/s-50.1°C23.1%0hPa0V00:00:0000:00:0000:00:00
DL9RDZ-12026-09-05 11:35:3364.04483-22.3110070°64km/h9405m3.8m/s-50.0°C22.8%0hPa0V00:00:0000:00:0000:00:00
DL9RDZ-12026-09-05 11:35:2364.04436-22.3143674°62km/h9363m4.7m/s-49.8°C21.9%0hPa0V00:00:0000:00:0000:00:00
DL9RDZ-12026-09-05 11:35:1364.04383-22.3177073°57km/h9323m4.0m/s-49.5°C21.5%0hPa0V00:00:0000:00:0000:00:00
DL9RDZ-12026-09-05 11:35:0264.04330-22.3213369°64km/h9277m4.5m/s-49.3°C21.8%0hPa0V00:00:0000:00:0000:00:00
DL9RDZ-12026-09-05 11:34:5164.04268-22.3250668°64km/h9231m5.2m/s-49.2°C22.4%0hPa0V00:00:0000:00:0000:00:00
DL9RDZ-12026-09-05 11:34:4164.04206-22.3284270°66km/h9191m4.2m/s-48.9°C23.1%0hPa0V00:00:0000:00:0000:00:00
DL9RDZ-12026-09-05 11:34:3064.04134-22.3323770°69km/h9145m3.8m/s-49.0°C25.3%0hPa0V00:00:0000:00:0000:00:00
DL9RDZ-12026-09-05 11:34:2064.04073-22.3360268°66km/h9102m3.8m/s-49.0°C27.2%0hPa0V00:00:0000:00:0000:00:00
DL9RDZ-12026-09-05 11:34:1064.04017-22.3394371°64km/h9057m3.9m/s-48.7°C26.0%0hPa0V00:00:0000:00:0000:00:00
DL9RDZ-12026-09-05 11:33:5964.03951-22.3432569°68km/h9008m3.9m/s-48.3°C24.6%0hPa0V00:00:0000:00:0000:00:00
DL9RDZ-12026-09-05 11:33:4864.03878-22.3471567°68km/h8960m3.4m/s-48.1°C24.3%0hPa0V00:00:0000:00:0000:00:00
DL9RDZ-12026-09-05 11:33:3764.03802-22.3509867°69km/h8912m3.5m/s-47.9°C26.4%0hPa0V00:00:0000:00:0000:00:00
DL9RDZ-12026-09-05 11:33:2764.03726-22.3547468°64km/h8869m4.9m/s-47.6°C25.9%0hPa0V00:00:0000:00:0000:00:00
DL9RDZ-12026-09-05 11:33:1564.03657-22.3584568°64km/h8825m3.7m/s-47.5°C30.8%0hPa0V00:00:0000:00:0000:00:00
DL9RDZ-12026-09-05 11:33:0464.03593-22.3619567°62km/h8780m3.4m/s-47.5°C32.1%0hPa0V00:00:0000:00:0000:00:00
DL9RDZ-12026-09-05 11:32:4864.03497-22.3671070°60km/h8714m4.4m/s-47.0°C29.1%0hPa0V00:00:0000:00:0000:00:00
DL9RDZ-12026-09-05 11:32:1864.03325-22.3764165°60km/h8595m3.0m/s-46.1°C29.1%0hPa0V00:00:0000:00:0000:00:00
DL9RDZ-12026-09-05 11:32:0864.03268-22.3795568°58km/h8557m3.6m/s-46.0°C28.9%0hPa0V00:00:0000:00:0000:00:00
DL9RDZ-12026-09-05 11:31:5864.03215-22.3825870°57km/h8516m3.6m/s-45.6°C27.7%0hPa0V00:00:0000:00:0000:00:00
DL9RDZ-12026-09-05 11:31:4764.03152-22.3860169°57km/h8476m3.3m/s-45.3°C27.8%0hPa0V00:00:0000:00:0000:00:00
DL9RDZ-12026-09-05 11:31:3764.03097-22.3890169°62km/h8437m4.0m/s-45.1°C26.9%0hPa0V00:00:0000:00:0000:00:00
DL9RDZ-12026-09-05 11:31:2764.03033-22.3921466°60km/h8399m2.4m/s-44.8°C27.5%0hPa0V00:00:0000:00:0000:00:00
DL9RDZ-12026-09-05 11:31:1664.02971-22.3954367°53km/h8359m3.3m/s-44.5°C24.2%0hPa0V00:00:0000:00:0000:00:00
DL9RDZ-12026-09-05 11:31:0664.02914-22.3984766°58km/h8320m3.4m/s-44.3°C24.4%0hPa0V00:00:0000:00:0000:00:00
DL9RDZ-12026-09-05 11:30:5564.02852-22.4017468°60km/h8274m3.7m/s-44.2°C27.9%0hPa0V00:00:0000:00:0000:00:00
DL9RDZ-12026-09-05 11:30:3464.02730-22.4084070°60km/h8192m4.2m/s-43.9°C36.2%0hPa0V00:00:0000:00:0000:00:00
DL9RDZ-12026-09-05 11:30:2364.02663-22.4119767°62km/h8146m3.7m/s-43.6°C37.0%0hPa0V00:00:0000:00:0000:00:00
DL9RDZ-12026-09-05 11:29:3764.02389-22.4275166°62km/h7961m3.2m/s-42.1°C36.4%0hPa0V00:00:0000:00:0000:00:00
DL9RDZ-12026-09-05 11:29:2764.02323-22.4306966°62km/h7922m3.5m/s-41.8°C35.8%0hPa0V00:00:0000:00:0000:00:00
DL9RDZ-12026-09-05 11:29:1864.02258-22.4338965°60km/h7882m4.7m/s-41.5°C36.8%0hPa0V00:00:0000:00:0000:00:00
DL9RDZ-12026-09-05 11:29:0764.02193-22.4369965°60km/h7841m4.0m/s-41.2°C37.9%0hPa0V00:00:0000:00:0000:00:00
DL9RDZ-12026-09-05 11:28:5764.02123-22.4400763°60km/h7800m4.3m/s-40.9°C37.6%0hPa0V00:00:0000:00:0000:00:00
DL9RDZ-12026-09-05 11:28:4664.02045-22.4434761°60km/h7753m4.6m/s-40.5°C36.7%0hPa0V00:00:0000:00:0000:00:00
DL9RDZ-12026-09-05 11:28:3664.01976-22.4465565°60km/h7713m4.0m/s-40.1°C36.1%0hPa0V00:00:0000:00:0000:00:00
DL9RDZ-12026-09-05 11:28:2564.01901-22.4499564°58km/h7666m4.1m/s-39.7°C34.7%0hPa0V00:00:0000:00:0000:00:00
DL9RDZ-12026-09-05 11:28:1564.01829-22.4532964°58km/h7624m4.4m/s-39.3°C33.3%0hPa0V00:00:0000:00:0000:00:00
DL9RDZ-12026-09-05 11:28:0364.01753-22.4565063°58km/h7576m4.3m/s-38.9°C33.8%0hPa0V00:00:0000:00:0000:00:00
DL9RDZ-12026-09-05 11:27:5264.01681-22.4596665°57km/h7531m4.6m/s-38.5°C32.7%0hPa0V00:00:0000:00:0000:00:00
DL9RDZ-12026-09-05 11:27:4164.01608-22.4627061°53km/h7486m3.7m/s-38.2°C34.7%0hPa0V00:00:0000:00:0000:00:00
DL9RDZ-12026-09-05 11:27:3064.01536-22.4656864°53km/h7444m4.0m/s-37.8°C34.5%0hPa0V00:00:0000:00:0000:00:00
DL9RDZ-12026-09-05 11:27:1964.01465-22.4687265°55km/h7397m4.5m/s-37.6°C35.0%0hPa0V00:00:0000:00:0000:00:00
DL9RDZ-12026-09-05 11:27:0864.01394-22.4716960°49km/h7350m3.5m/s-37.2°C34.3%0hPa0V00:00:0000:00:0000:00:00
DL9RDZ-12026-09-05 11:26:5764.01327-22.4744363°49km/h7309m4.9m/s-36.9°C33.8%0hPa0V00:00:0000:00:0000:00:00
DL9RDZ-12026-09-05 11:26:4664.01259-22.4772260°51km/h7265m3.7m/s-36.7°C35.0%0hPa0V00:00:0000:00:0000:00:00
DL9RDZ-12026-09-05 11:26:3564.01186-22.4800259°51km/h7221m4.9m/s-36.4°C37.2%0hPa0V00:00:0000:00:0000:00:00
DL9RDZ-12026-09-05 11:26:2564.01121-22.4826462°51km/h7178m3.8m/s-36.1°C38.9%0hPa0V00:00:0000:00:0000:00:00
DL9RDZ-12026-09-05 11:26:1564.01057-22.4850862°47km/h7136m4.0m/s-35.8°C39.2%0hPa0V00:00:0000:00:0000:00:00
DL9RDZ-12026-09-05 11:26:0464.00994-22.4877164°47km/h7089m4.2m/s-35.3°C38.5%0hPa0V00:00:0000:00:0000:00:00
DL9RDZ-12026-09-05 11:25:5464.00941-22.4900864°46km/h7046m3.7m/s-35.0°C38.1%0hPa0V00:00:0000:00:0000:00:00
DL9RDZ-12026-09-05 11:25:4364.00886-22.4927567°46km/h7003m4.5m/s-34.7°C36.8%0hPa0V00:00:0000:00:0000:00:00
DL9RDZ-12026-09-05 11:25:3364.00840-22.4951565°47km/h6961m4.6m/s-34.3°C36.7%0hPa0V00:00:0000:00:0000:00:00
DL9RDZ-12026-09-05 11:25:2364.00793-22.4974763°44km/h6918m4.6m/s-33.9°C36.5%0hPa0V00:00:0000:00:0000:00:00
DL9RDZ-12026-09-05 11:25:1364.00741-22.4997265°47km/h6875m3.9m/s-33.5°C35.1%0hPa0V00:00:0000:00:0000:00:00
DL9RDZ-12026-09-05 11:25:0364.00684-22.5022163°46km/h6833m4.5m/s-33.2°C32.3%0hPa0V00:00:0000:00:0000:00:00
DL9RDZ-12026-09-05 11:24:5264.00625-22.5048164°46km/h6788m4.1m/s-32.8°C32.8%0hPa0V00:00:0000:00:0000:00:00
DL9RDZ-12026-09-05 11:24:4264.00567-22.5070661°47km/h6745m4.9m/s-32.5°C32.6%0hPa0V00:00:0000:00:0000:00:00
DL9RDZ-12026-09-05 11:24:2064.00449-22.5119164°40km/h6648m5.0m/s-31.8°C35.9%0hPa0V00:00:0000:00:0000:00:00
DL9RDZ-12026-09-05 11:24:1064.00402-22.5138662°40km/h6608m5.3m/s-31.7°C37.7%0hPa0V00:00:0000:00:0000:00:00
DL9RDZ-12026-09-05 11:23:5964.00342-22.5159459°40km/h6561m4.7m/s-31.3°C37.0%0hPa0V00:00:0000:00:0000:00:00
DL9RDZ-12026-09-05 11:23:4964.00288-22.5179960°40km/h6522m3.8m/s-31.0°C37.0%0hPa0V00:00:0000:00:0000:00:00
DL9RDZ-12026-09-05 11:23:2864.00166-22.5223261°42km/h6436m4.9m/s-30.6°C39.6%0hPa0V00:00:0000:00:0000:00:00
DL9RDZ-12026-09-05 11:23:1764.00117-22.5247264°42km/h6388m5.0m/s-30.2°C39.4%0hPa0V00:00:0000:00:0000:00:00
DL9RDZ-12026-09-05 11:23:0764.00072-22.5266359°38km/h6342m5.3m/s-29.9°C39.9%0hPa0V00:00:0000:00:0000:00:00
DL9RDZ-12026-09-05 11:22:5664.00015-22.5286057°38km/h6294m4.6m/s-29.5°C39.6%0hPa0V00:00:0000:00:0000:00:00
DL9RDZ-12026-09-05 11:22:4663.99964-22.5304256°38km/h6253m3.4m/s-29.2°C37.3%0hPa0V00:00:0000:00:0000:00:00
DL9RDZ-12026-09-05 11:22:3663.99909-22.5322658°40km/h6214m3.8m/s-28.9°C38.0%0hPa0V00:00:0000:00:0000:00:00
DL9RDZ-12026-09-05 11:22:2563.99851-22.5342859°40km/h6170m4.8m/s-28.6°C36.9%0hPa0V00:00:0000:00:0000:00:00
DL9RDZ-12026-09-05 11:22:0463.99749-22.5380458°37km/h6080m4.2m/s-27.8°C32.9%0hPa0V00:00:0000:00:0000:00:00
DL9RDZ-12026-09-05 11:21:5363.99695-22.5399155°40km/h6028m2.1m/s-27.4°C31.7%0hPa0V00:00:0000:00:0000:00:00
DL9RDZ-12026-09-05 11:21:4263.99636-22.5417651°33km/h5984m4.0m/s-27.0°C31.4%0hPa0V00:00:0000:00:0000:00:00
DL9RDZ-12026-09-05 11:21:3163.99588-22.5434957°33km/h5936m6.2m/s-26.7°C31.9%0hPa0V00:00:0000:00:0000:00:00
DL9RDZ-12026-09-05 11:21:2063.99545-22.5453468°31km/h5883m4.3m/s-26.2°C29.2%0hPa0V00:00:0000:00:0000:00:00
DL9RDZ-12026-09-05 11:21:0963.99503-22.5471864°31km/h5837m5.2m/s-25.8°C26.4%0hPa0V00:00:0000:00:0000:00:00
DL9RDZ-12026-09-05 11:20:5863.99462-22.5488568°33km/h5789m3.2m/s-25.4°C25.2%0hPa0V00:00:0000:00:0000:00:00
DL9RDZ-12026-09-05 11:20:4863.99424-22.5504060°29km/h5742m3.4m/s-25.0°C23.4%0hPa0V00:00:0000:00:0000:00:00
DL9RDZ-12026-09-05 11:20:3763.99389-22.5519964°29km/h5694m4.2m/s-24.7°C22.3%0hPa0V00:00:0000:00:0000:00:00
DL9RDZ-12026-09-05 11:20:2763.99361-22.5535066°27km/h5646m3.3m/s-24.2°C21.4%0hPa0V00:00:0000:00:0000:00:00
DL9RDZ-12026-09-05 11:20:1663.99331-22.5551766°31km/h5597m4.4m/s-23.8°C18.4%0hPa0V00:00:0000:00:0000:00:00
DL9RDZ-12026-09-05 11:20:0563.99299-22.5568971°31km/h5549m4.3m/s-23.4°C17.3%0hPa0V00:00:0000:00:0000:00:00
DL9RDZ-12026-09-05 11:19:5463.99259-22.5584258°33km/h5504m4.6m/s-23.1°C17.7%0hPa0V00:00:0000:00:0000:00:00
DL9RDZ-12026-09-05 11:19:4463.99221-22.5600170°31km/h5456m4.0m/s-22.8°C17.0%0hPa0V00:00:0000:00:0000:00:00
DL9RDZ-12026-09-05 11:19:3463.99188-22.5615265°29km/h5412m5.4m/s-22.5°C16.4%0hPa0V00:00:0000:00:0000:00:00
DL9RDZ-12026-09-05 11:19:2363.99163-22.5631972°27km/h5364m4.9m/s-22.0°C15.6%0hPa0V00:00:0000:00:0000:00:00
DL9RDZ-12026-09-05 11:19:1263.99137-22.5648770°31km/h5314m4.5m/s-21.5°C14.9%0hPa0V00:00:0000:00:0000:00:00
DL9RDZ-12026-09-05 11:19:0163.99109-22.5667776°29km/h5264m4.0m/s-21.1°C15.0%0hPa0V00:00:0000:00:0000:00:00
DL9RDZ-12026-09-05 11:18:5163.99088-22.5684174°27km/h5221m5.0m/s-20.8°C14.9%0hPa0V00:00:0000:00:0000:00:00
DL9RDZ-12026-09-05 11:18:4063.99060-22.5701974°33km/h5173m5.0m/s-20.4°C14.9%0hPa0V00:00:0000:00:0000:00:00
DL9RDZ-12026-09-05 11:18:3163.99032-22.5717370°27km/h5119m5.7m/s-20.0°C14.8%0hPa0V00:00:0000:00:0000:00:00
DL9RDZ-12026-09-05 11:18:1963.99004-22.5734278°29km/h5070m3.0m/s-19.5°C14.2%0hPa0V00:00:0000:00:0000:00:00
DL9RDZ-12026-09-05 11:18:0963.98979-22.5749171°29km/h5024m5.0m/s-19.2°C14.0%0hPa0V00:00:0000:00:0000:00:00
DL9RDZ-12026-09-05 11:17:5863.98949-22.5765770°29km/h4970m5.0m/s-18.6°C13.6%0hPa0V00:00:0000:00:0000:00:00
DL9RDZ-12026-09-05 11:17:4763.98919-22.5779872°27km/h4918m6.3m/s-18.2°C12.4%0hPa0V00:00:0000:00:0000:00:00
DL9RDZ-12026-09-05 11:17:3663.98889-22.5794168°22km/h4868m4.1m/s-17.8°C12.2%0hPa0V00:00:0000:00:0000:00:00
DL9RDZ-12026-09-05 11:17:2663.98872-22.5807771°26km/h4827m4.3m/s-17.5°C12.2%0hPa0V00:00:0000:00:0000:00:00
DL9RDZ-12026-09-05 11:17:1563.98843-22.5821968°24km/h4781m5.0m/s-17.2°C11.4%0hPa0V00:00:0000:00:0000:00:00
DL9RDZ-12026-09-05 11:17:0563.98825-22.5833274°24km/h4734m5.5m/s-16.8°C11.2%0hPa0V00:00:0000:00:0000:00:00
DL9RDZ-12026-09-05 11:16:5563.98804-22.5844674°24km/h4689m4.8m/s-16.4°C9.9%0hPa0V00:00:0000:00:0000:00:00
DL9RDZ-12026-09-05 11:16:4463.98789-22.5857981°15km/h4642m3.9m/s-16.0°C8.0%0hPa0V00:00:0000:00:0000:00:00
DL9RDZ-12026-09-05 11:16:3463.98767-22.5869073°20km/h4598m3.8m/s-15.7°C6.8%0hPa0V00:00:0000:00:0000:00:00
DL9RDZ-12026-09-05 11:16:2363.98750-22.5880678°20km/h4549m4.3m/s-15.6°C5.1%0hPa0V00:00:0000:00:0000:00:00
DL9RDZ-12026-09-05 11:15:2263.98665-22.5948035°11km/h4269m3.5m/s-14.3°C19.7%0hPa0V00:00:0000:00:0000:00:00
DL9RDZ-12026-09-05 11:15:1263.98657-22.5953260°15km/h4218m4.2m/s-14.0°C24.6%0hPa0V00:00:0000:00:0000:00:00
DL9RDZ-12026-09-05 11:15:0163.98642-22.5961565°16km/h4165m4.6m/s-13.8°C26.3%0hPa0V00:00:0000:00:0000:00:00
DL9RDZ-12026-09-05 11:14:5063.98619-22.5969867°15km/h4118m3.9m/s-13.6°C19.1%0hPa0V00:00:0000:00:0000:00:00
DL9RDZ-12026-09-05 11:14:4063.98584-22.5976432°22km/h4070m4.6m/s-14.1°C27.7%0hPa0V00:00:0000:00:0000:00:00
DL9RDZ-12026-09-05 11:14:3063.98553-22.5984222°16km/h4030m4.5m/s-14.2°C37.7%0hPa0V00:00:0000:00:0000:00:00
DL9RDZ-12026-09-05 11:14:1963.98519-22.5987934°15km/h3974m5.2m/s-14.1°C47.2%0hPa0V00:00:0000:00:0000:00:00
DL9RDZ-12026-09-05 11:14:0963.98488-22.5989838°7km/h3926m4.4m/s-13.9°C62.7%0hPa0V00:00:0000:00:0000:00:00
DL9RDZ-12026-09-05 11:13:5863.98453-22.59908358°18km/h3874m2.9m/s-13.7°C72.6%0hPa0V00:00:0000:00:0000:00:00
DL9RDZ-12026-09-05 11:13:4763.98414-22.59905351°11km/h3821m3.4m/s-13.1°C71.0%0hPa0V00:00:0000:00:0000:00:00
DL9RDZ-12026-09-05 11:13:3763.98386-22.5994215°13km/h3769m4.4m/s-12.9°C73.2%0hPa0V00:00:0000:00:0000:00:00
DL9RDZ-12026-09-05 11:13:2663.98366-22.599274km/h3718m5.0m/s-12.7°C76.8%0hPa0V00:00:0000:00:0000:00:00
DL9RDZ-12026-09-05 11:11:3863.98018-22.59633292°9km/h3182m5.0m/s-10.4°C76.0%0hPa0V00:00:0000:00:0000:00:00
DL9RDZ-12026-09-05 11:11:2863.98002-22.59626350°9km/h3134m4.5m/s-9.9°C74.7%0hPa0V00:00:0000:00:0000:00:00
DL9RDZ-12026-09-05 11:11:1763.97968-22.59590341°15km/h3085m3.3m/s-9.5°C74.1%0hPa0V00:00:0000:00:0000:00:00
DL9RDZ-12026-09-05 11:11:0763.97933-22.59578342°13km/h3034m4.8m/s-9.1°C73.9%0hPa0V00:00:0000:00:0000:00:00
DL9RDZ-12026-09-05 11:10:5763.97905-22.5956624°7km/h2991m4.9m/s-8.8°C72.9%0hPa0V00:00:0000:00:0000:00:00
DL9RDZ-12026-09-05 11:10:3563.97838-22.59569358°13km/h2871m5.3m/s-7.8°C64.6%0hPa0V00:00:0000:00:0000:00:00
DL9RDZ-12026-09-05 11:10:2463.97805-22.59545323°13km/h2817m4.0m/s-7.5°C65.4%0hPa0V00:00:0000:00:0000:00:00
DL9RDZ-12026-09-05 11:10:1463.97776-22.59517350°11km/h2774m3.0m/s-7.1°C63.6%0hPa0V00:00:0000:00:0000:00:00
DL9RDZ-12026-09-05 11:10:0363.97761-22.59534327°5km/h2717m4.5m/s-6.7°C63.0%0hPa0V00:00:0000:00:0000:00:00
DL9RDZ-12026-09-05 11:09:5363.97737-22.59552340°9km/h2674m3.8m/s-6.3°C59.7%0hPa0V00:00:0000:00:0000:00:00
DL9RDZ-12026-09-05 11:09:4363.97717-22.5955871°11km/h2625m5.6m/s-6.1°C56.9%0hPa0V00:00:0000:00:0000:00:00
DL9RDZ-12026-09-05 11:09:3363.97697-22.5959232°11km/h2575m4.4m/s-5.8°C0%0hPa0V00:00:0000:00:0000:00:00
DL9RDZ-12026-09-05 11:09:2363.97674-22.5962334°15km/h2529m4.9m/s-5.4°C0%0hPa0V00:00:0000:00:0000:00:00
DL9RDZ-12026-09-05 11:09:1263.97645-22.5967033°11km/h2476m5.2m/s-5.0°C0%0hPa0V00:00:0000:00:0000:00:00
DL9RDZ-12026-09-05 11:09:0163.97622-22.596819km/h2425m3.3m/s-4.6°C0%0hPa0V00:00:0000:00:0000:00:00
DL9RDZ-12026-09-05 11:06:2163.97392-22.6026426°16km/h1655m6.2m/s-0.2°C0%0hPa0V00:00:0000:00:0000:00:00
DL9RDZ-12026-09-05 11:06:0863.97358-22.6032012°16km/h1600m6.5m/s-0.0°C0%0hPa0V00:00:0000:00:0000:00:00
DL9RDZ-12026-09-05 11:05:5763.97319-22.6035635°11km/h1543m4.5m/s-0.1°C0%0hPa0V00:00:0000:00:0000:00:00
DL9RDZ-12026-09-05 11:05:4763.97295-22.6039544°13km/h1495m2.7m/s0.0°C0%0hPa0V00:00:0000:00:0000:00:00
DL9RDZ-12026-09-05 11:05:1163.97241-22.6061268°11km/h1309m6.8m/s0°C0%0hPa0V00:00:0000:00:0000:00:00
DL9RDZ-12026-09-05 11:05:0163.97225-22.6067982°13km/h1254m5.6m/s0°C0%0hPa0V00:00:0000:00:0000:00:00
DL9RDZ-12026-09-05 11:04:5063.97224-22.6077276°16km/h1191m5.6m/s0°C0%0hPa0V00:00:0000:00:0000:00:00
DL9RDZ-12026-09-05 11:04:3663.97212-22.6084863°9km/h1110m5.5m/s0°C0%0hPa0V00:00:0000:00:0000:00:00
DL9RDZ-12026-09-05 11:04:2063.97177-22.6091425°7km/h1027m5.8m/s0°C0%0hPa0V00:00:0000:00:0000:00:00
DL9RDZ-12026-09-05 11:04:0463.97150-22.609730km/h948m3.7m/s0°C0%0hPa0V00:00:0000:00:0000:00:00
DL9RDZ-12026-09-05 11:03:4963.97124-22.6101030°13km/h866m5.0m/s0°C0%0hPa0V00:00:0000:00:0000:00:00
DL9RDZ-12026-09-05 11:03:3863.97104-22.61053103°13km/h803m5.5m/s0°C0%0hPa0V00:00:0000:00:0000:00:00


GPX KML Map

© wettersonde.net (DO2JMG) - 2026  -  -